Location: Amsterdam
(30.7274°N, 84.4357°W)
Time: 17:31:48
(UTC+00:00)

Transit 2A Rocket - Pass Details

Date: 18 February 2026
Orbit: 583 x 900 km, 66.7° (Epoch: 12 March)

Event Time Altitude Azimuth Distance (km) Brightness Sun altitude
Rises 07:30:12 0° 327° (NNW) 3,265 - -60.2°
Reaches altitude 10° 07:32:47 10° 322° (NW) 2,281 - -59.8°
Maximum altitude 07:37:43 45° 250° (WSW) 957 - -58.9°
Drops below altitude 10° 07:42:11 10° 178° (S) 2,074 - -58.1°
Sets 07:44:27 0° 172° (S) 2,937 - -57.6°
